Location: Unspecified
(43.4354°N, 0.0000°E)
Time: 18:43:17
(UTC+00:00)

S-56A Canister/Altair - Pass Details

Date: 30 June 2019
Orbit: 633 x 2499 km, 38.9° (Epoch: 19 August)

Event Time Altitude Azimuth Distance (km) Brightness Sun altitude
Rises 13:09:25 0° 235° (SW) 6,076 12.4 65.6°
Reaches altitude 10° 13:13:45 10° 231° (SW) 4,935 12.2 65.1°
Maximum altitude 13:26:41 53° 161° (SSE) 2,211 11.0 63.5°
Drops below altitude 10° 13:35:45 10° 88° (E) 3,538 10.8 62.2°
Sets 13:38:21 0° 83° (E) 4,289 11.1 61.9°
